Flag for Canada Weather past 2 weeks in Cambridge, Ontario, Canada

Now
46 °F

Clear.


Feels Like: 46 °F
Forecast: 47 / 72 °F
Wind: 2 mph from North

Location: Waterloo Well

Current Time: Jul 3, 2015 at 3:08:05 AM

Latest Report: Jul 3, 2015 at 2:00 AM


Visibility: 9 mi

Pressure: 30.02 "Hg

Humidity: 93%

Dew point: 45 °F

Location of CambridgeLocation

Historic Weather in Cambridge — Graph

°F

Cambridge temperature yesterday

Maximum temperature yesterday: 70 °F (at 5:00 PM)
Minimum temperature yesterday: 50 °F (at 6:01 AM)
Average temperature yesterday: 60 °F

Past Weeks' High & Low Weather Summary

 TemperatureHumidityPressure
High81 °F (Jun 22, 2:00 PM)100% (Jun 20, 4:00 AM)30.13 "Hg (Jun 20, 4:00 AM)
Low46 °F (Jun 20, 4:00 AM)37% (Jun 25, 3:00 PM)29.66 "Hg (Jun 23, 5:00 AM)
Average63 °F79%29.91 "Hg
* Reported Jun 18 1:00 AM — Jul 3 1:00 AM, Cambridge, Weather by CustomWeather, © 2015

Note: Actual official high and low records may vary slightly from our data, if they occured in-between our weather recording intervals... More about our weather records

Advertising

Cambridge weather history for previous 24 hours

 ConditionsComfort  
Time TempWeatherWind HumidityBarometerVisibility
1:00 AM
Fri, Jul 3
48 °FClear.2 mph94%30.02 "Hg9 mi
12:00 AM52 °FClear.3 mph77%30.01 "Hg9 mi
11:00 PM
Thu, Jul 2
50 °FClear.5 mph88%30.01 "Hg9 mi
10:00 PM59 °FSunny.6 mph55%30.00 "Hg9 mi
9:00 PM61 °FSunny.5 mph72%29.98 "Hg9 mi
8:00 PM66 °FSunny.6 mph56%29.98 "Hg9 mi
7:00 PM68 °FScattered clouds.9 mph49%29.97 "Hg9 mi
6:00 PM70 °FScattered clouds.5 mph50%29.97 "Hg9 mi
5:00 PM70 °FPartly sunny.8 mph46%29.97 "Hg9 mi
4:00 PM68 °FPassing clouds.7 mph49%29.98 "Hg9 mi
3:00 PM68 °FPassing clouds.8 mph46%29.99 "Hg9 mi
2:00 PM68 °FScattered clouds.6 mph49%30.00 "Hg9 mi
1:00 PM66 °FScattered clouds.5 mph49%30.01 "Hg9 mi
12:00 PM66 °FScattered clouds.8 mph46%30.01 "Hg9 mi
11:00 AM64 °FSunny.7 mph52%30.01 "Hg9 mi
10:00 AM63 °FSunny.8 mph56%30.00 "Hg9 mi
9:00 AM61 °FSunny.3 mph72%29.99 "Hg9 mi
8:00 AM57 °FSunny.7 mph82%29.99 "Hg9 mi
7:00 AM54 °FSunny.5 mph94%29.98 "Hg7 mi
6:04 AM50 °FFog.5 mph100%29.97 "Hg3 mi
6:01 AM50 °FFog.5 mph100%29.97 "Hg1 mi
5:04 AM52 °FFog.No wind100%29.95 "Hg1 mi
4:54 AM52 °FLight rain. Fog.3 mph100%29.95 "Hg1 mi
4:00 AM54 °FPartly cloudy.5 mph94%29.95 "Hg9 mi
3:59 AM54 °FPartly cloudy.5 mph94%29.95 "Hg9 mi
3:00 AM55 °FOvercast.5 mph94%29.96 "Hg9 mi
Weather by CustomWeather, © 2015

See weather overviewHow to use our weather pages